DECAYED
Showing default

FLOCK 4Y 15, 55068 (Decayed)

Orbit data source: Space-Track

FLOCK 4Y 15, 55068 was a payload satellite owned by Planet (US) in LEO that was launched on Tue, 03 Jan 2023 UTC via an FALCON 9 launch vehicle from the Air Force Eastern Test Range (AFETR). Payload-class satellites include a variety of spacecraft equipped with specific instruments for various scientific and technological missions. These include communications satellites like Starlink; space stations such as the ISS; scientific satellites like the Hubble; Earth observation satellites from companies like Planet Labs, Umbra, and HawkEye 360; GPS; miniature CubeSats for education and research; and military/defense satellites.

Not visible in the next 10 days
Identifier
55068, 2023-001BM
Orbit
Decayed
Country
Flag of USUS
Related business
Manufacturer
Planet
Mission
Decayed Commercial Imaging
Bus & Motor
CUBESAT 3U, Unknown motor
Mass
5.7 kg wet, 5.7 kg dry
Launch date (UTC)
2023-01-03 (3 years ago)
Launch vehicle
FALCON 9
Launch site
Air Force Eastern Test Range (AFETR)
Object type
Payload
Rocket body
Debris
Shape & HBR
Box + 2 Pan, 1.0 m
Radar Cross Section
0.108 m², Medium (>0.1 m² and < 1m²)

Expand to show TLE details & history
Last TLE update: 4 weeks ago

TLE from 4 weeks ago
0 FLOCK 4Y 15
1 55068U 23001BM  25262.04662003  .09659927  25047-5  11223-2 0  9999
2 55068  97.3448 340.1885 0013317 238.7559 121.2434 16.36529516151800
Epoch: 2025-09-19T01:07Z
TLE epoch observation values (Epoch: 2025-09-19T01:07:07.970Z)
Latitude
-0.0001°
Longitude
-34.79418°
Altitude
182.835 km
Speed
7.794 km/s
True Right ascension
22h 40m 45s
True Declination
0° 00' 00"
Sunlit
Object was in full shadow at epoch
Visualization orbit readout
Latitude
Unknown
Longitude
Unknown
Altitude
Unknown
Speed
Unknown
Apparent Right ascension
Unknown
Apparent Declination
Unknown
Sunlit
N/A
Visualization observer readout
Local Sidereal Time
09:34:32
Azimuth
Unknown
Elevation
Unknown
Doppler factor
Unknown
Orbital elements
Apogee altitude
180.583 km
Perigee altitude
163.138 km
Semi-major axis
6,549.997 km
Eccentricity
0.00133
Inclination
97.3448°
RAAN
340.1885°
Arg. of periapsis
238.7559°
True anomaly
121.37376°
Mean anomaly
121.2434°
Eccentric anomaly
121.30859°
Mean motion
4.09432 °/min
Orbital period
87.93 mins
BSTAR
0.0011223
Loading maneuver chart data...
Computing Atmospheric mass density...

Documentation

Showing up to 5 results
|